Location: Ammerl�gen
(47.2167°N, 9.6000°E)
Time: 09:21:00
(UTC+00:00)

Cosmos 1869 - Pass Details

Date: 21 April 2021
Orbit: 518 x 563 km, 82.5° (Epoch: 06 May)

Event Time Altitude Azimuth Distance (km) Brightness Sun altitude
Exits shadow 20:55:43 57° 228° (SW) 642 3.5 -22.4°
Maximum altitude 20:56:19 69° 280° (W) 584 3.5 -22.5°
Drops below altitude 10° 21:00:16 10° 5° (N) 1,801 6.6 -22.9°
Sets 21:02:26 0° 8° (N) 2,689 7.5 -23.1°
